GW5350 Weather Reports


Display with metric or nautical units.
time (UTC)temp
F
wind
direction
speed
MPH
gust
MPH
rain 1hr
in
rain 24hr
in
rain mn
in
humidity
%
barometer
mb
20260504081812 95 183 3.0 3.0 0.00 0.00 0.08 59 982.0
20260504081311 95 165 2.0 2.0 0.00 0.00 0.08 59 982.0
20260504080811 94 125 2.0 3.0 0.00 0.00 0.08 60 982.0
20260504080312 94 156 2.0 3.0 0.00 0.00 0.08 61 982.0
20260504070311 93 134 2.0 2.0 0.00 0.00 0.08 63 983.0
20260504050311 91 144 2.0 2.0 0.00 0.00 0.08 58 985.0
20260504045811 91 117 0.0 1.0 0.00 0.00 0.08 57 985.0
20260504045312 89 160 1.0 1.0 0.00 0.00 0.08 61 985.0
20260504044811 89 179 2.0 2.0 0.00 0.00 0.08 60 985.0
20260504044311 89 155 1.0 1.0 0.00 0.00 0.08 62 985.0
20260504043811 88 168 2.0 2.0 0.00 0.00 0.08 62 985.0
20260504043311 88 128 0.0 0.0 0.00 0.00 0.08 64 985.0
20260504042811 87 179 1.0 1.0 0.00 0.00 0.08 64 985.0
20260504042312 86 120 0.0 0.0 0.00 0.00 0.08 65 985.0
20260504041812 86 118 0.0 0.0 0.00 0.00 0.08 66 985.0
20260504041311 86 119 0.0 0.0 0.00 0.00 0.08 67 985.0
20260504040811 86 135 1.0 2.0 0.00 0.00 0.08 66 985.0
20260504040311 86 191 1.0 1.0 0.00 0.00 0.08 65 985.0
20260504035811 86 115 1.0 2.0 0.00 0.00 0.08 67 985.0
20260504035312 85 162 2.0 2.0 0.00 0.00 0.08 68 985.0
20260504034811 85 198 1.0 2.0 0.00 0.00 0.08 68 986.0
20260504034312 86 159 1.0 2.0 0.00 0.00 0.08 66 986.0
20260504033811 85 153 3.0 3.0 0.00 0.00 0.08 67 985.0
20260504033312 85 162 1.0 1.0 0.00 0.00 0.08 70 985.0
20260504032812 85 161 1.0 1.0 0.00 0.00 0.08 68 985.0
20260504032312 85 141 0.0 1.0 0.00 0.00 0.08 69 985.0
20260504031812 83 115 0.0 0.0 0.00 0.00 0.08 73 985.0
20260504031311 84 98 1.0 1.0 0.00 0.00 0.08 72 985.0
20260504030812 83 122 0.0 0.0 0.00 0.00 0.08 73 985.0
20260504030311 82 119 1.0 1.0 0.00 0.00 0.08 75 985.0
20260504025812 82 112 0.0 0.0 0.00 0.00 0.08 75 985.0
20260504025311 82 113 1.0 1.0 0.00 0.00 0.08 74 985.0
20260504024811 82 112 1.0 1.0 0.00 0.00 0.08 75 985.0
20260504024311 81 132 0.0 0.0 0.00 0.00 0.08 77 985.0
20260504023812 81 155 0.0 1.0 0.00 0.00 0.08 76 985.0
20260504023312 80 110 1.0 1.0 0.00 0.00 0.08 78 985.0
20260504022812 79 100 0.0 1.0 0.00 0.00 0.08 79 985.0
20260504022312 79 33 1.0 2.0 0.00 0.00 0.08 80 985.0
20260504021811 79 90 1.0 1.0 0.00 0.00 0.08 80 985.0
20260504021311 79 111 0.0 1.0 0.00 0.00 0.08 80 985.0
20260504020811 79 119 1.0 1.0 0.00 0.00 0.08 80 984.0
20260504020311 79 122 0.0 1.0 0.00 0.00 0.08 81 984.0
20260504015811 79 105 0.0 1.0 0.00 0.00 0.08 81 984.0
20260504015311 78 53 1.0 2.0 0.00 0.00 0.08 80 984.0
20260504014812 79 84 2.0 2.0 0.00 0.00 0.08 81 984.0
20260504014311 78 115 0.0 0.0 0.00 0.00 0.08 80 984.0
20260504013811 79 47 2.0 3.0 0.00 0.00 0.08 79 984.0
20260504013311 79 140 0.0 0.0 0.00 0.00 0.08 80 984.0
20260504012812 78 129 0.0 0.0 0.00 0.00 0.08 81 984.0
20260504012312 78 117 1.0 1.0 0.00 0.00 0.08 81 984.0
20260504011811 77 136 0.0 0.0 0.00 0.00 0.08 82 984.0
20260504011312 77 188 2.0 3.0 0.00 0.00 0.08 83 983.0
20260504010811 77 134 1.0 1.0 0.00 0.00 0.08 84 984.0
20260504010311 77 137 0.0 0.0 0.00 0.00 0.08 85 984.0
20260504005811 76 132 0.0 0.0 0.00 0.00 0.08 85 983.0
20260504005311 76 135 0.0 0.0 0.00 0.00 0.08 85 983.0
20260504004811 76 130 0.0 0.0 0.00 0.00 0.08 85 984.0
20260504004311 76 128 0.0 0.0 0.00 0.00 0.08 85 984.0
20260504003811 76 115 0.0 0.0 0.00 0.00 0.08 84 983.0
20260503173812 71 88 1.0 1.0 0.17 0.00 0.99 93 987.0
20260503173311 71 63 2.0 2.0 0.47 0.00 0.99 93 987.0
20260503172812 72 128 1.0 1.0 0.61 0.00 0.98 93 987.0
20260503150813 86 143 1.0 2.0 0.00 0.00 0.09 75 982.0
20260503150311 85 126 1.0 1.0 0.00 0.00 0.09 76 982.0
20260503140313 95 190 4.0 7.0 0.00 0.00 0.00 49 981.0
20260503131312 99 189 1.0 2.0 0.00 0.00 0.00 43 980.0
20260503130812 99 224 5.0 6.0 0.00 0.00 0.00 42 980.0
20260503130311 99 223 1.0 2.0 0.00 0.00 0.00 42 980.0
20260503110813 103 175 5.0 6.0 0.00 0.00 0.00 38 979.0
20260503110312 103 164 1.0 1.0 0.00 0.00 0.00 38 979.0
20260503090311 103 152 0.0 0.0 0.00 0.00 0.00 40 980.0